カタログに戻る

BusanSat

運用中科学SSO
NORAD 68989·PAYLOAD·🇮🇹 Italy

打ち上げ May 3, 2026 から Vandenberg Space Force Base

Loading…

次のパス (今後24時間)

TLE

最新Source: Space-Track

元期: Sep 13, 2026, 16:29 UTC

1 68989U 26100K   26256.68708014  .00001288  00000-0  13533-3 0  9991
2 68989  97.7265 152.3160 0005486 187.8040 172.3094 14.91136968 19887

AllMySatでBusanSatをリアルタイム追跡

Download on the App Store